Simultaneous Nadir Overpasses (SNOs) Predictions

Prediction of SNOs between AURA and NPP Satellite Orbit:

Table of predicted SNOs for the next 14.0 days since TLE Epoch: 2/15/2019
Index Date (AURA) Time (AURA) Lat,Lon (AURA) SZA (AURA ) Date (NPP) Time (NPP) Lat,Lon (NPP) SZA (NPP ) Distance(km) Time Diff (sec)
1 02/18/2019 11:25:06 79.63, -93.40 104.25 02/18/2019 11:24:38 79.63, -93.45 104.28 1.15 28
2 02/18/2019 12:14:28 -79.82, 75.70 76.06 02/18/2019 12:15:17 -79.82, 75.63 76.08 1.37 49
3 02/21/2019 03:41:34 79.72, 23.11 103.17 02/21/2019 03:41:29 79.72, 23.14 103.17 0.57 5
4 02/21/2019 04:30:56 -79.91,-167.76 77.14 02/21/2019 04:32:08 -79.91,-167.74 77.20 0.24 72
5 02/23/2019 19:08:45 -79.48, -30.37 77.44 02/23/2019 19:07:46 -79.47, -30.52 77.37 3.13 59
6 02/23/2019 19:58:02 79.80, 139.60 102.07 02/23/2019 19:58:20 79.81, 139.73 102.03 2.56 18
7 02/26/2019 11:25:12 -79.60, 86.35 78.62 02/26/2019 11:24:36 -79.60, 86.31 78.58 0.92 36
8 02/26/2019 12:14:32 79.80,-104.47 101.07 02/26/2019 12:15:14 79.80,-104.55 101.05 1.60 42
9 03/01/2019 03:41:38 -79.71,-156.93 79.80 03/01/2019 03:41:25 -79.72,-156.85 79.81 1.67 13




NCC Satellite Simultaneous Nadir Overpasses (SNOs) Prediction Service
